Date String (YYYY-MM-DD hh:mm:ss) UTC,Instrument flags,absolute air pressure of the measurement (hPa),sample flow rate (lpm),inlet stack bypass flow (lpm),air temperature of the measurement (°C),ambient temperature measured by the external sensor (°C),aerosol sample conditioner tube jacket temperature (°C),OPC LED temperature (°C),internal box temperature (°C),relative humidity of the measurement (%),span deviation,mass concentration of particles derived from Lorenz-Mie calculation of OPC scattering (μg/m³),mass concentration of particles derived from Lorenz-Mie calculation of OPC scattering (μg/m³),mass concentration of particles derived from Lorenz-Mie calculation of OPC scattering (μg/m³)
DateTimeUTC,F1_M11,P_M11,Q1_M11,Q2_M11,T1_M11,T2_M11,T3_M11,T4_M11,T5_M11,U1_M11,ZSPAN_M11,X0_M11,X2_M11,X1_M11
2024-02-28 15:00:00,SystemResetWarning,0828.7,5.01,000.00,019.1,018.7,000.0,027.5,020.9,08.6,0000.0,0009.41,0002.35,0001.32
2024-02-28 15:01:00,SystemResetWarning,0828.8,5.00,000.00,019.1,018.6,000.0,027.5,020.9,08.7,0000.0,0008.84,0002.24,0001.33
2024-02-28 15:02:00,SystemResetWarning,0828.8,5.00,000.00,019.1,018.6,000.0,027.5,020.9,08.3,0000.0,0008.19,0002.17,0001.34
2024-02-28 15:03:00,SystemResetWarning,0828.8,5.00,000.00,019.1,018.5,000.0,027.5,020.9,08.3,0000.0,0008.48,0002.22,0001.37
2024-02-28 15:04:00,SystemResetWarning,0828.8,5.00,000.00,019.1,018.5,000.0,027.5,020.8,08.2,0000.0,0009.15,0002.25,0001.39
2024-02-28 15:05:00,SystemResetWarning,0828.8,4.99,000.00,019.0,018.4,000.0,027.5,020.8,08.4,0000.0,0008.82,0002.21,0001.39
2024-02-28 15:06:00,SystemResetWarning,0828.8,5.00,000.00,019.0,018.4,000.0,027.5,020.8,08.6,0000.0,0009.00,0002.19,0001.40
2024-02-28 15:07:00,SystemResetWarning,0828.8,5.00,000.00,019.0,018.3,000.0,027.5,020.8,08.6,0000.0,0009.54,0002.24,0001.41
2024-02-28 15:08:00,SystemResetWarning,0828.8,5.00,000.00,019.0,018.3,000.0,027.5,020.7,08.6,0000.0,0009.99,0002.21,0001.41
2024-02-28 15:09:00,SystemResetWarning,0828.8,5.00,000.00,019.0,018.3,000.0,027.5,020.7,08.5,0000.0,0009.79,0002.30,0001.44
2024-02-28 15:10:00,SystemResetWarning,0828.8,5.02,000.00,018.9,018.2,000.0,027.5,020.7,08.5,0000.0,0009.76,0002.34,0001.45
2024-02-28 15:11:00,SystemResetWarning,0828.8,4.99,000.00,018.9,018.2,000.0,027.5,020.7,08.7,0000.0,0010.15,0002.34,0001.48
2024-02-28 15:12:00,SystemResetWarning,0828.8,5.00,000.00,018.9,018.2,000.0,027.5,020.7,08.8,0000.0,0010.45,0002.39,0001.49
2024-02-28 15:13:00,SystemResetWarning,0828.8,5.00,000.00,018.9,018.2,000.0,027.4,020.6,08.8,0000.0,0010.26,0002.50,0001.49
2024-02-28 15:14:00,SystemResetWarning,0828.8,4.99,000.00,018.8,018.1,000.0,027.4,020.6,08.7,0000.0,0009.68,0002.49,0001.47
2024-02-28 15:15:00,SystemResetWarning,0828.7,5.01,000.00,018.8,018.1,000.0,027.4,020.6,08.6,0000.0,0008.85,0002.50,0001.47
2024-02-28 15:16:00,SystemResetWarning,0828.7,5.00,000.00,018.8,018.1,000.0,027.4,020.5,08.6,0000.0,0008.90,0002.59,0001.48
2024-02-28 15:17:00,SystemResetWarning,0828.8,5.01,000.00,018.8,018.0,000.0,027.4,020.4,08.7,0000.0,0008.44,0002.59,0001.48
2024-02-28 15:18:00,SystemResetWarning,0828.8,5.01,000.00,018.7,018.0,000.0,027.4,020.5,08.8,0000.0,0008.21,0002.62,0001.49
2024-02-28 15:19:00,SystemResetWarning,0828.8,5.00,000.00,018.7,018.0,000.0,027.3,020.4,08.7,0000.0,0008.15,0002.69,0001.50
2024-02-28 15:20:00,SystemResetWarning,0828.8,5.00,000.00,018.7,018.0,000.0,027.3,020.4,08.8,0000.0,0008.18,0002.66,0001.49
2024-02-28 15:21:00,SystemResetWarning,0828.7,5.00,000.00,018.7,018.0,000.0,027.3,020.4,08.7,0000.0,0008.46,0002.62,0001.47
2024-02-28 15:22:00,SystemResetWarning,0828.9,5.00,000.00,018.7,018.0,000.0,027.3,020.4,08.6,0000.0,0008.33,0002.64,0001.47
2024-02-28 15:23:00,SystemResetWarning,0829.0,5.01,000.00,018.7,017.9,000.0,027.3,020.4,08.7,0000.0,0008.44,0002.67,0001.48
2024-02-28 15:24:00,SystemResetWarning,0828.9,5.01,000.00,018.7,017.9,000.0,027.2,020.4,08.9,0000.0,0008.69,0002.65,0001.50
2024-02-28 15:25:00,SystemResetWarning,0828.9,5.01,000.00,018.7,017.9,000.0,027.2,020.4,08.8,0000.0,0009.37,0002.71,0001.52
2024-02-28 15:26:00,SystemResetWarning,0828.9,5.00,000.00,018.7,017.9,000.0,027.2,020.4,09.0,0000.0,0009.97,0002.70,0001.55
2024-02-28 15:27:00,SystemResetWarning,0828.8,4.99,000.00,018.6,017.9,000.0,027.2,020.4,08.9,0000.0,0010.09,0002.66,0001.55
2024-02-28 15:28:00,SystemResetWarning,0828.7,4.99,000.00,018.6,017.9,000.0,027.2,020.4,08.8,0000.0,0010.71,0002.69,0001.57
2024-02-28 15:29:00,SystemResetWarning,0828.7,5.00,000.00,018.6,017.9,000.0,027.2,020.3,08.7,0000.0,0011.20,0002.67,0001.56
2024-02-28 15:30:00,SystemResetWarning,0828.8,5.00,000.00,018.6,017.9,000.0,027.2,020.3,08.7,0000.0,0012.26,0002.57,0001.56
2024-02-28 15:31:00,SystemResetWarning,0828.8,5.00,000.00,018.6,017.9,000.0,027.1,020.3,08.8,0000.0,0012.22,0002.54,0001.56
2024-02-28 15:32:00,SystemResetWarning,0829.0,5.00,000.00,018.6,017.9,000.0,027.1,020.3,08.8,0000.0,0011.89,0002.53,0001.57
2024-02-28 15:33:00,SystemResetWarning,0829.0,5.01,000.00,018.6,017.9,000.0,027.1,020.3,08.7,0000.0,0012.40,0002.53,0001.57
2024-02-28 15:34:00,SystemResetWarning,0829.0,5.00,000.00,018.6,017.9,000.0,027.1,020.3,08.6,0000.0,0012.24,0002.55,0001.57
2024-02-28 15:35:00,SystemResetWarning,0828.9,5.00,000.00,018.6,017.9,000.0,027.1,020.3,08.7,0000.0,0012.27,0002.59,0001.57
2024-02-28 15:36:00,SystemResetWarning,0829.0,5.00,000.00,018.5,017.8,000.0,027.1,020.3,08.6,0000.0,0011.69,0002.56,0001.57
2024-02-28 15:37:00,SystemResetWarning,0829.0,4.99,000.00,018.5,017.8,000.0,027.1,020.3,08.6,0000.0,0010.96,0002.53,0001.56
2024-02-28 15:38:00,SystemResetWarning,0829.0,5.01,000.00,018.5,017.8,000.0,027.0,020.2,08.9,0000.0,0010.66,0002.54,0001.56
2024-02-28 15:39:00,SystemResetWarning,0828.9,5.00,000.00,018.5,017.8,000.0,027.0,020.2,08.7,0000.0,0010.11,0002.50,0001.55
2024-02-28 15:40:00,SystemResetWarning,0829.0,5.00,000.00,018.5,017.8,000.0,027.0,020.3,08.8,0000.0,0009.56,0002.50,0001.55
2024-02-28 15:41:00,SystemResetWarning,0829.0,5.00,000.00,018.5,017.8,000.0,027.0,020.2,09.1,0000.0,0007.80,0002.51,0001.55
2024-02-28 15:42:00,SystemResetWarning,0829.0,5.00,000.00,018.5,017.8,000.0,027.0,020.2,09.4,0000.0,0007.48,0002.46,0001.54
2024-02-28 15:43:00,SystemResetWarning,0829.0,4.99,000.00,018.5,017.8,000.0,027.0,020.2,09.3,0000.0,0007.51,0002.44,0001.54
2024-02-28 15:44:00,SystemResetWarning,0828.9,5.00,000.00,018.5,017.8,000.0,027.0,020.2,09.0,0000.0,0007.04,0002.44,0001.53
2024-02-28 15:45:00,SystemResetWarning,0828.9,4.99,000.00,018.4,017.8,000.0,027.0,020.2,09.1,0000.0,0007.53,0002.41,0001.54
2024-02-28 15:46:00,SystemResetWarning,0828.9,5.00,000.00,018.4,017.7,000.0,027.0,020.2,09.2,0000.0,0007.12,0002.35,0001.54
2024-02-28 15:47:00,SystemResetWarning,0828.9,5.00,000.00,018.4,017.7,000.0,027.0,020.2,09.3,0000.0,0007.28,0002.32,0001.53
2024-02-28 15:48:00,SystemResetWarning,0829.0,5.00,000.00,018.4,017.7,000.0,027.0,020.2,09.3,0000.0,0007.59,0002.36,0001.53
2024-02-28 15:49:00,SystemResetWarning,0829.0,5.01,000.00,018.4,017.7,000.0,027.0,020.1,09.3,0000.0,0008.17,0002.40,0001.54
2024-02-28 15:50:00,SystemResetWarning,0828.9,5.01,000.00,018.4,017.7,000.0,027.0,020.1,09.2,0000.0,0008.19,0002.43,0001.55
2024-02-28 15:51:00,SystemResetWarning,0828.9,5.00,000.00,018.4,017.7,000.0,026.9,020.1,09.1,0000.0,0007.85,0002.45,0001.55
2024-02-28 15:52:00,SystemResetWarning,0828.9,4.99,000.00,018.4,017.7,000.0,026.9,020.0,09.1,0000.0,0007.85,0002.45,0001.56
2024-02-28 15:53:00,SystemResetWarning,0828.9,4.99,000.00,018.4,017.7,000.0,026.9,020.0,09.4,0000.0,0007.98,0002.50,0001.57
2024-02-28 15:54:00,SystemResetWarning,0829.0,5.00,000.00,018.4,017.7,000.0,026.9,020.0,09.1,0000.0,0008.19,0002.57,0001.58
2024-02-28 15:55:00,SystemResetWarning,0829.0,5.00,000.00,018.4,017.7,000.0,026.9,020.1,08.9,0000.0,0008.01,0002.57,0001.59
2024-02-28 15:56:00,SystemResetWarning,0828.9,5.00,000.00,018.4,017.7,000.0,026.9,020.1,09.0,0000.0,0007.87,0002.57,0001.58
2024-02-28 15:57:00,SystemResetWarning,0829.0,5.00,000.00,018.4,017.7,000.0,026.9,020.1,08.8,0000.0,0008.23,0002.58,0001.57
2024-02-28 15:58:00,SystemResetWarning,0829.0,5.01,000.00,018.4,017.8,000.0,026.8,020.0,08.9,0000.0,0008.66,0002.59,0001.58
2024-02-28 15:59:00,SystemResetWarning,0828.9,5.00,000.00,018.4,017.8,000.0,026.8,020.1,08.8,0000.0,0008.38,0002.56,0001.59
